Regional Weather Roundup
Issued by NWS Little Rock, AR

Home | Current Version | Previous Version | Text Only | Print | Product List | Glossary On
Versions: 1 2 3 4 5 6 7 8 9 10 11 12 13 14 15 16 17 18 19 20 21 22 23 24 25 26 27 28 29 30 31 32 33 34 35 36 37 38 39 40 41 42 43 44 45 46 47 48 49 50
000
ASUS44 KLZK 231205
RWRLZK

WEATHER ROUNDUP FOR ARKANSAS
NATIONAL WEATHER SERVICE LITTLE ROCK AR
600 AM CST SUN NOV 23 2014

NOTE: "FAIR" INDICATES FEW OR NO CLOUDS BELOW 12,000 FEET WITH NO
SIGNIFICANT WEATHER AND/OR OBSTRUCTIONS TO VISIBILITY.

ARZ001-003-010-029-231300-
NORTHWEST ARKANSAS

CITY           SKY/WX    TMP DP  RH WIND       PRES   REMARKS
FAYETTEVILLE   CLOUDY    57  54  89 SE7G17    29.58F
6HR MIN TEMP:  57; 6HR MAX TEMP:  59;

FORT SMITH     CLOUDY    55  53  93 E7        29.59F
6HR MIN TEMP:  53; 6HR MAX TEMP:  56;

HARRISON       LGT RAIN  55  54  96 S9        29.63F FOG
6HR MIN TEMP:  53; 6HR MAX TEMP:  57; 6HR PCP: TRACE;

BENTONVILLE    CLOUDY    57  52  82 S7        29.59F
6HR MIN TEMP:  55; 6HR MAX TEMP:  59;

ROGERS         CLOUDY    57  54  89 SE13      29.58F
6HR MIN TEMP:  56; 6HR MAX TEMP:  58;

SILOAM SPGS    CLOUDY    57  52  82 S8        29.59F
6HR MIN TEMP:  55; 6HR MAX TEMP:  57;

HIGHFILL       CLOUDY    57  54  89 S7        29.58F
6HR MIN TEMP:  55; 6HR MAX TEMP:  59; 6HR PCP: TRACE;

SPRINGDALE     CLOUDY    57  54  88 SE9       29.61
$$

ARZ004-005-016-231300-
NORTH CENTRAL ARKANSAS

CITY           SKY/WX    TMP DP  RH WIND       PRES   REMARKS
BATESVILLE     CLOUDY    57  54  88 SE9G16    29.69F
6HR MIN TEMP:  54; 6HR MAX TEMP:  57; 6HR PCP:  0.02;

FLIPPIN        CLOUDY    55  50  82 SE3       29.66F
6HR MIN TEMP:  54; 6HR MAX TEMP:  57; 6HR PCP:  0.03;

MTN HOME       LGT RAIN  54  53  97 SE5       29.65F FOG
6HR MIN TEMP:  51; 6HR MAX TEMP:  55; 6HR PCP:  0.10;

$$

ARZ040-041-231300-
WEST CENTRAL ARKANSAS

CITY           SKY/WX    TMP DP  RH WIND       PRES   REMARKS
MENA           CLOUDY    61  59  94 SE5       29.61F
MOUNT IDA      CLOUDY    59  56  89 VRB3      29.61F
6HR MIN TEMP:  59; 6HR MAX TEMP:  62; 6HR PCP: TRACE;

$$

ARZ009-017-025-026-028-231300-
NORTHEAST ARKANSAS

CITY           SKY/WX    TMP DP  RH WIND       PRES   REMARKS
CORNING        CLOUDY    55  52  88 SE8       29.75F
JONESBORO      CLOUDY    57  53  86 SE9       29.74F
6HR MIN TEMP:  45; 6HR MAX TEMP:  57;

NEWPORT        LGT RAIN  56  55  96 E14       29.73F FOG
6HR MIN TEMP:  48; 6HR MAX TEMP:  57; 6HR PCP: TRACE;

WALNUT RIDGE   CLOUDY    55  48  76 SE6       29.72F
6HR MIN TEMP:  52; 6HR MAX TEMP:  55;

BLYTHEVILLE    CLOUDY    65  54  67 SE13G23   29.76F
6HR MIN TEMP:  60; 6HR MAX TEMP:  65;

$$

ARZ022-023-033-042-044-231300-
CENTRAL ARKANSAS

CITY           SKY/WX    TMP DP  RH WIND       PRES   REMARKS
LITTLE ROCK    LGT RAIN  58  54  86 SE13G21   29.68F FOG
6HR MIN TEMP:  57; 6HR MAX TEMP:  60; 6HR PCP:  0.10;

N LITTLE ROCK    N/A     56  56 100 SE13G22   29.68F
6HR MIN TEMP:  56; 6HR MAX TEMP:  58;

JACKSONVILLE   LGT RAIN  57  57  98 SE12G17   29.67F
6HR MIN TEMP:  57; 6HR MAX TEMP:  58; 6HR PCP:  0.15;

SEARCY         LGT RAIN  58  57  97 SE10      29.70F
6HR MIN TEMP:  49; 6HR MAX TEMP:  58; 6HR PCP:  0.10;

HOT SPRINGS    LGT RAIN  58  57  97 SE6       29.65F
6HR MIN TEMP:  58; 6HR MAX TEMP:  61; 6HR PCP:  0.07;

RUSSELLVILLE   RAIN      57  55  93 VRB3      29.64F FOG
6HR MIN TEMP:  56; 6HR MAX TEMP:  60;

CLINTON        LGT RAIN  54  54 100 CALM      29.69S
$$

ARZ036-231300-
EAST ARKANSAS

CITY           SKY/WX    TMP DP  RH WIND       PRES   REMARKS
WEST MEMPHIS   CLOUDY    59  57  93 SE16      29.74F
6HR MIN TEMP:  52; 6HR MAX TEMP:  60;

$$

ARZ050-053-066-070-073-231300-
SOUTHWEST ARKANSAS

CITY           SKY/WX    TMP DP  RH WIND       PRES   REMARKS
ARKADELPHIA    LGT RAIN  59  59 100 SE9       29.65S FOG
6HR MIN TEMP:  57; 6HR MAX TEMP:  60; 6HR PCP:  0.12;

CAMDEN         CLOUDY    57  55  94 NE8       29.67F FOG
TEXARKANA      LGT RAIN  61  61 100 S5        29.61F
6HR MIN TEMP:  59; 6HR MAX TEMP:  61; 6HR PCP:  0.07;

EL DORADO      CLOUDY    59  58  96 SE7       29.66F FOG
6HR MIN TEMP:  57; 6HR MAX TEMP:  59; 6HR PCP:  0.63;

DE QUEEN       CLOUDY    59  58  96 E5        29.61F
6HR MIN TEMP:  59; 6HR MAX TEMP:  61; 6HR PCP: TRACE;

$$

ARZ056-057-069-231300-
SOUTHEAST ARKANSAS

CITY           SKY/WX    TMP DP  RH WIND       PRES   REMARKS
PINE BLUFF     CLOUDY    57  54  89 SE10      29.70F
6HR MIN TEMP:  56; 6HR MAX TEMP:  58; 6HR PCP:  0.15;

STUTTGART      CLOUDY    57  54  88 SE12      29.70F
6HR MIN TEMP:  55; 6HR MAX TEMP:  57; 6HR PCP:  0.05;

MONTICELLO     LGT RAIN  59  56  89 SE6       29.70F FOG
6HR MIN TEMP:  57; 6HR MAX TEMP:  59; 6HR PCP:  0.05;


$$




USA.gov is the U.S. government's official web portal to all federal, state and local government web resources and services.